www.pogodaiklimat.ru

Погода и климат >> Архив погоды >> Украина >> Мироновка


ПОГОДА в Мироновке

  • Прогноз погоды в Мироновке
  • Монитор погоды в Мироновке

АРХИВ ПОГОДЫ в Мироновке

Время (UTC), дата Ветер
(напр.,м/с)
 
Видим.   Явления Облачность Т
(С)
Тd
(С)
f
(%)
Тe
(С)
Тes
(С)
Комфортность P
(гПа)
Po
(гПа)
Тmin
(С)
Tmax
(С)
R
(мм)
R24
(мм)
S
(см)
12 17.06 ЮЗ 2 20 км 5/0
[Cc]
+28.7 +15.2 44 +31 +45 жарко 1014.8 997.5
15 17.06 ЮВ 1 20 км гроза без осадков 10/5 600 м
[Cb calv Ac trans Cs]
+27.8 +16.8 51 +31 +33 душно 1014.7 997.4
18 17.06 штиль 0 20 км {гроза} 10/4 600 м
[Sc Ac trans Cs]
+23.8 +18.1 70 +28 +28 душно 1014.7 997.2 +29.2
21 17.06 штиль 0 14 км 10/0
[Cs]
+21.4 +17.5 78 +25 +25 комфорт 1015.4 997.7
00 18.06 штиль 0 9000 м дымка 10/0
[Ci fib]
+19.0 +17.4 90 +20 +20 1015.9 998.0
03 18.06 З 1 9000 м дымка 8/0
[Ci fib]
+19.6 +18.3 92 +23 +24 комфорт 1016.2 998.4
06 18.06 С 2 16 км 1/0
[Cc]
+22.7 +17.4 72 +28 +36 душно 1016.5 998.9 +18.6
09 18.06 С 2 20 км 3/3 1000 м
[Cu hum]
+26.2 +18.5 63 +31 +43 очень
душно
1016.6 999.2
12 18.06 С 2 20 км 3/3 1000 м
[Cu hum]
+27.1 +16.3 52 +31 +41 душно 1016.2 998.8
15 18.06 С 2 20 км 1/1 600 м
[Cu hum]
+27.6 +16.1 50 +31 +35 душно 1015.0 997.7
18 18.06 штиль 0 20 км 3/0
[Ci]
+24.3 +18.3 69 +29 +29 душно 1015.1 997.6 +28.4
21 18.06 штиль 0 9000 м дымка 8/0
[Ac trans Ci fib]
+19.3 +16.8 85 +21 +21 комфорт 1016.7 998.8
00 19.06 штиль 0 9000 м дымка 10/1 1000 м
[Sc Ac trans Ci fib]
+18.6 +17.0 90 +19 +19 1016.6 998.7
03 19.06 штиль 0 9000 м дымка 9/5 600 м
[Sc Ac trans Ci fib]
+19.4 +16.8 85 +21 +21 комфорт 1016.3 998.5
06 19.06 С 2 20 км 1/0
[Ci fib]
+23.7 +17.6 69 +28 +36 душно 1016.2 998.6 +18.0
09 19.06 С 4 20 км 8/8 900 м
[Cu Sc]
+25.5 +16.6 58 +29 +31 душно 1016.2 998.7
12 19.06 штиль 0 20 км 5/5 1000 м
[Cu hum]
+26.4 +15.8 52 +30 +39 душно 1015.5 998.1
15 19.06 штиль 0 20 км 1/1 1000 м
[Cu hum]
+28.2 +15.7 47 +31 +37 душно 1014.0 996.7
18 19.06 штиль 0 20 км 1/0
[Ci fib]
+24.6 +17.9 66 +29 +29 душно 1014.3 996.8 +28.8
21 19.06 штиль 0 9000 м дымка 1/0
[Ci fib]
+19.2 +16.6 85 +21 +21 комфорт 1014.9 997.1
00 20.06 штиль 0 8000 м дымка 1/0
[Ci fib]
+17.0 +15.1 89 +17 +17 1015.2 997.2
03 20.06 штиль 0 5000 м дымка 9/5 600 м
[Cb calv Ac trans Cc]
+17.2 +16.5 96 +17 +17 1015.2 997.2
06 20.06 В 2 20 км 3/1 1000 м
[Cu med, cong Cc]
+26.2 +18.7 63 +31 +38 очень
душно
1014.5 997.1 +16.5
09 20.06 В 2 20 км 5/5 1000 м
[Cu med, cong]
+28.3 +17.4 52 +32 +41 душно 1014.4 997.1
12 20.06 В 2 20 км 5/4 600 м
[Cu Sc Ac trans]
+30.2 +13.8 37 +32 +40 жарко 1013.9 996.7
15 20.06 В 2 20 км 1/1 1000 м
[Cu hum]
+29.7 +14.4 39 +32 +36 душно 1013.3 996.1
18 20.06 штиль 0 20 км ясно +25.6 +18.4 64 +30 +30 душно 1013.3 995.9 +31.0
21 20.06 штиль 0 13 км ясно +19.8 +16.8 83 +22 +22 комфорт 1014.8 997.0
00 21.06 штиль 0 11 км ясно +17.8 +15.1 84 +18 +18 1015.3 997.4
03 21.06 штиль 0 11 км 3/0
[Ci fib]
+18.0 +15.1 83 +18 +19 1015.8 997.9
06 21.06 ЮВ 2 20 км 3/0
[Ci fib]
+26.5 +17.8 59 +31 +39 душно 1015.5 998.1 +16.5
09 21.06 Ю 3 20 км 3/1 1000 м
[Cu hum Ci fib]
+30.7 +12.5 33 +32 +44 жарко 1015.5 998.3
12 21.06 ЮВ 3 20 км 4/3 1000 м
[Cu med, cong Cc]
+31.5 +12.5 31 +32 +40 жарко 1015.1 998.0
15 21.06 ЮВ 2 20 км 3/0
[Ac cuf Cc]
+30.7 +12.0 32 +31 +35 жарко 1014.4 997.2
18 21.06 ЮВ 1 20 км 1/0
[Ci fib]
+25.8 +16.8 58 +30 +30 душно 1014.6 997.2 +32.0
21 21.06 штиль 0 24 км ясно +20.6 +13.5 64 +23 +23 комфорт 1015.6 997.8
00 22.06 штиль 0 14 км ясно +17.8 +14.5 81 +18 +18 1015.9 998.0
03 22.06 штиль 0 15 км ясно +17.6 +14.3 81 +18 +18 1016.2 998.2
06 22.06 В 1 20 км ясно +27.8 +16.4 50 +31 +41 душно 1015.7 998.4 +16.2
09 22.06 В 2 20 км ясно +31.7 +14.2 35 +33 +51 опасность
солнечного
удара
1015.7 998.6
12 22.06 В 2 20 км 4/4 1000 м
[Cu hum]
+33.4 +13.8 31 +35 +43 душно 1015.3 998.3
15 22.06 штиль 0 20 км 1/1 600 м
[Cu hum]
+32.8 +14.5 33 +34 +40 очень
жарко
1013.9 996.9
18 22.06 ЮВ 1 20 км 8/0
[Ac trans Cc]
+26.6 +19.2 64 +32 +32 очень
душно
1015.0 997.6 +34.0
21 22.06 штиль 0 17 км 3/0
[Ac trans Ci fib]
+21.8 +17.3 76 +26 +26 душно 1015.3 997.6
00 23.06 З 1 12 км 9/5 600 м
[Cb calv Ac trans]
+20.2 +17.3 83 +24 +24 комфорт 1015.4 997.6
03 23.06 З 1 6000 м дымка 8/3 600 м
[Cb calv Ac trans Ci fib]
+18.6 +17.6 94 +21 +21 комфорт 1015.5 997.6
06 23.06 ЮВ 1 20 км ясно +27.6 +18.4 57 +32 +42 очень
душно
1015.0 997.7 +17.9
09 23.06 СВ 1 20 км ясно +30.4 +18.3 48 +35 +55 опасность
солнечного
удара
1015.1 997.9
12 23.06 З 2 20 км 6/3 600 м
[Cb calv Ac trans Cc]
+32.8 +16.0 37 +36 +44 очень
душно
1014.2 997.2
15 23.06 ЮВ 2 20 км {гроза} 6/3 600 м
[Cb calv Ac trans Cc]
+30.0 +17.1 46 +34 +36 очень
душно
1013.8 996.6
18 23.06 штиль 0 20 км {гроза} 10/1 600 м
[Cb calv Ac trans Cc]
+23.8 +17.4 67 +28 +28 душно 1015.6 998.0 +33.7
21 23.06 СВ 2 13 км 1/0
[Ci fib]
+20.6 +17.3 81 +25 +25 комфорт 1016.8 999.0
00 24.06 ЮЗ 1 9000 м дымка 8/0
[Ac trans]
+18.1 +15.9 87 +19 +19 1016.6 998.7
03 24.06 СЗ 1 9000 м дымка 10/5 600 м
[Cb calv Ac As]
+19.6 +18.0 90 +23 +23 комфорт 1017.4 999.6
06 24.06 СЗ 2 20 км 6/3 600 м
[Sc Ac trans Ci fib]
+23.4 +19.0 76 +30 +34 очень
душно
1017.8 1000.2 +17.9

 

Местоположение метеостанции Мироновка (Киевская область, Украина): широта 49.67 долгота 31.00 высота над уровнем моря 153 м.

В архиве по умолчанию представлена погода в Мироновке за последнюю неделю. Архивные данные за месяц целиком и за предыдущие месяцы, начиная с января 2011 года, Вы можете получить, выбрав интересующий диапазон дат из раскрывающегося списка и нажав кнопку "Ввод!".


*Определитесь, кто Вы:
робот инопланетянин человек

Внимание! Время в таблицах - всемирное. Для получения местного времени необходимо прибавить поправку, которая равна 2 ч.

Смотрите также архив погоды в соседних городах и на ближайших метеорологических станциях:

Погода в Каневе (Черкасская область, Украина) (38 км)
Погода в Белой Церкви (Киевская область, Украина) (64 км)
Погода в Звенигородке (Черкасская область, Украина) (66 км)
Погода в Борисполе (Киевская область, Украина) (73 км)
Погода в Золотоноше (Черкасская область, Украина) (74 км)
Погода в Ротмистровке (Черкасская область, Украина) (79 км)
Погода в Жашкове (Черкасская область, Украина) (80 км)
Погода в Черкассах (Черкасская область, Украина) (81 км)
Погода в Барышевке (Киевская область, Украина) (81 км)
Погода в Яготине (Киевская область, Украина) (84 км)

Пояснения к столбцам:

Ветер - указаны скорость ветра в м/с - средняя за 10 мин, порывы в срок и между сроками (в фигурных скобках) и направление, откуда дует ветер: С - северный, СВ - северо-восточный, В - восточный, ЮВ - юго-восточный, Ю - южный, ЮЗ - юго-западный, З - западный, СЗ - северо-западный.
Видимость - горизонтальная дальность видимости в метрах или километрах. При видимости от 1 до 10 км при отсутствии осадков обычно наблюдается дымка, при ухудшении видимости до 1 км и менее - туман. В сухую погоду видимость может ухудшаться дымом, пылью или мглою.
Явления - указаны атмосферные явления, наблюдавшиеся в срок или в последний час перед сроком; фигурными скобками обозначены явления, наблюдавшиеся между сроками (за 1-3 часа до срока); квадратными скобками обозначены град или гололедные отложения с указанием их диаметра в мм.
Облачность - указаны через наклонную черту общая и нижняя облачность в баллах и высота нижней границы облаков в метрах; квадратными скобками обозначены формы облаков: Ci - перистые, Cs - перисто-слоистые, Cc - перисто-кучевые, Ac - высококучевые, As - высокослоистые, Sc - слоисто-кучевые, Ns - слоисто-дождевые, Cu - кучевые, Cb - кучево-дождевые. Подробнее классификацию облаков см. в Атласе облаков (PDF).
T - Температура воздуха - температура, измеренная на высоте 2 м над землей.
Td - Температура точки росы - температура, при понижении до которой содержащийся в воздухе водяной пар достигнет насыщения.
f - Относительная влажность воздуха - влажноcть воздуха, измеренная на высоте 2 м над землей.
Te - Эффективная температура - температура, которую ощущает одетый по сезону человек в тени. Характеристика душности погоды. При расчете учитывается влияние влажности воздуха и скорости ветра на теплоощущения человека.
Tes - Эффективная температура на солнце - температура, которую ощущает человек, с поправкой на солнечный нагрев. Характеристика знойности погоды. Зависит от высоты солнца над горизонтом, облачности и скорости ветра. Ночью, в пасмурную погоду, а также при ветре 12 м/с и более поправка равна нулю.
P - Атмосферное давление - приведенное к уровню моря атмосферное давление.
Po - Атмосферное давление - измеренное на уровне метеостанции атмосферное давление.
Tmin - Минимальная температура - минимум температуры воздуха на высоте 2 м над землей.
Tmax - Максимальная температура - максимум температуры воздуха на высоте 2 м над землей.
R - Количество осадков - Количество выпавших осадков за период времени, мм. При наведении курсора мыши на число - период времени, за который выпало указанное количество осадков.
R24 - Количество осадков - Количество выпавших осадков за 24 часа, мм.
S - Снежный покров - Высота снежного покрова, см. При наведении курсора мыши на число - состояние снежного покрова и степень покрытия местности в баллах.